EN

Hourly Weather Bolshie Noviki

Today, 23 October, Friday

Time Temperature Precipitation Wind Pressure Humidity
00:00 +11°C° 0 mm 4 mps 743 mmHg 92%
01:00 +10°C° 0 mm 4 mps 743 mmHg 93%
02:00 +10°C° 0 mm 3 mps 743 mmHg 93%
03:00 +10°C° 0 mm 3 mps 743 mmHg 93%
04:00 +9°C° 0 mm 3 mps 742 mmHg 94%
05:00 +9°C° 0 mm 3 mps 742 mmHg 94%
06:00 +10°C° 0 mm 3 mps 742 mmHg 92%
07:00 +10°C° 0 mm 4 mps 741 mmHg 91%
08:00 +10°C° 0 mm 4 mps 741 mmHg 89%
09:00 +12°C° 0 mm 5 mps 741 mmHg 85%
10:00 +13°C° 0 mm 5 mps 741 mmHg 81%
11:00 +14°C° 0 mm 6 mps 741 mmHg 77%
12:00 +14°C° 0 mm 6 mps 741 mmHg 76%
13:00 +15°C° 0 mm 6 mps 740 mmHg 75%
14:00 +15°C° 0 mm 6 mps 740 mmHg 75%
15:00 +12°C° 0 mm 1 mps 740 mmHg 94%
16:00 +11°C° 0 mm 3 mps 740 mmHg 91%
17:00 +12°C° 0 mm 4 mps 740 mmHg 88%
18:00 +11°C° 0 mm 4 mps 741 mmHg 91%
19:00 +11°C° 0 mm 3 mps 741 mmHg 93%
20:00 +10°C° 0 mm 3 mps 741 mmHg 95%
21:00 +10°C° 0 mm 3 mps 741 mmHg 95%
22:00 +9°C° 0 mm 2 mps 741 mmHg 96%
23:00 +9°C° 0 mm 2 mps 741 mmHg 97%

Tomorrow, 24 October, Saturday

Time Temperature Precipitation Wind Pressure Humidity
00:00 +9°C° 0 mm 2 mps 741 mmHg 96%
01:00 +8°C° 0 mm 2 mps 741 mmHg 96%
02:00 +9°C° 0 mm 1 mps 742 mmHg 96%
03:00 +9°C° 0 mm 1 mps 741 mmHg 96%
04:00 +10°C° 0 mm 1 mps 741 mmHg 96%
05:00 +10°C° 0 mm 1 mps 741 mmHg 96%
06:00 +10°C° 0 mm 1 mps 741 mmHg 96%
07:00 +10°C° 0 mm 1 mps 741 mmHg 96%
08:00 +10°C° 0 mm 1 mps 741 mmHg 96%
09:00 +11°C° 0.5 mm 1 mps 741 mmHg 95%
10:00 +11°C° 0.5 mm 1 mps 741 mmHg 95%
11:00 +11°C° 0.5 mm 1 mps 741 mmHg 94%
12:00 +11°C° 0.2 mm 1 mps 741 mmHg 91%
13:00 +12°C° 0.2 mm 1 mps 741 mmHg 88%
14:00 +12°C° 0.2 mm 1 mps 742 mmHg 86%
15:00 +12°C° 0 mm 2 mps 742 mmHg 88%
16:00 +10°C° 0 mm 2 mps 742 mmHg 90%
17:00 +9°C° 0 mm 2 mps 742 mmHg 93%
18:00 +9°C° 0 mm 2 mps 742 mmHg 93%
19:00 +9°C° 0 mm 2 mps 742 mmHg 94%
20:00 +8°C° 0 mm 3 mps 743 mmHg 95%
21:00 +8°C° 0 mm 3 mps 743 mmHg 95%
22:00 +8°C° 0 mm 3 mps 743 mmHg 95%
23:00 +8°C° 0 mm 4 mps 743 mmHg 95%

Day after tomorrow, 25 October, Sunday

Time Temperature Precipitation Wind Pressure Humidity
00:00 +8°C° 0 mm 3 mps 744 mmHg 95%
01:00 +8°C° 0 mm 3 mps 744 mmHg 96%
02:00 +8°C° 0 mm 3 mps 744 mmHg 96%
03:00 +8°C° 0 mm 3 mps 744 mmHg 96%
04:00 +7°C° 0 mm 3 mps 745 mmHg 96%
05:00 +7°C° 0 mm 3 mps 745 mmHg 96%
06:00 +7°C° 0 mm 2 mps 745 mmHg 95%
07:00 +7°C° 0 mm 2 mps 746 mmHg 95%
08:00 +7°C° 0 mm 2 mps 746 mmHg 94%
09:00 +8°C° 0 mm 2 mps 746 mmHg 89%
10:00 +9°C° 0 mm 2 mps 747 mmHg 85%
11:00 +10°C° 0 mm 2 mps 747 mmHg 80%
12:00 +12°C° 0 mm 2 mps 747 mmHg 78%
13:00 +13°C° 0 mm 2 mps 747 mmHg 76%
14:00 +12°C° 0 mm 3 mps 747 mmHg 74%
15:00 +12°C° 0 mm 2 mps 747 mmHg 78%
16:00 +10°C° 0 mm 2 mps 747 mmHg 83%
17:00 +10°C° 0 mm 1 mps 747 mmHg 87%
18:00 +10°C° 0 mm 1 mps 747 mmHg 88%
19:00 +9°C° 0 mm 1 mps 748 mmHg 89%
20:00 +8°C° 0 mm 2 mps 748 mmHg 90%
21:00 +8°C° 0 mm 2 mps 748 mmHg 91%
22:00 +7°C° 0 mm 2 mps 748 mmHg 92%
23:00 +7°C° 0 mm 2 mps 748 mmHg 92%

, 26 October, Monday

Time Temperature Precipitation Wind Pressure Humidity
00:00 +7°C° 0 mm 2 mps 748 mmHg 93%
01:00 +7°C° 0 mm 2 mps 748 mmHg 93%
02:00 +6°C° 0 mm 2 mps 748 mmHg 94%
03:00 +5°C° 0 mm 3 mps 748 mmHg 94%
04:00 +5°C° 0 mm 3 mps 748 mmHg 95%
05:00 +5°C° 0 mm 3 mps 748 mmHg 95%
06:00 +5°C° 0 mm 3 mps 748 mmHg 95%
07:00 +5°C° 0 mm 3 mps 748 mmHg 95%
08:00 +5°C° 0 mm 4 mps 748 mmHg 95%
09:00 +7°C° 0 mm 4 mps 748 mmHg 89%
10:00 +8°C° 0 mm 4 mps 748 mmHg 84%
11:00 +9°C° 0 mm 5 mps 748 mmHg 79%
12:00 +10°C° 0 mm 5 mps 747 mmHg 77%
13:00 +12°C° 0 mm 5 mps 747 mmHg 75%
14:00 +12°C° 0 mm 5 mps 747 mmHg 74%
15:00 +12°C° 0 mm 5 mps 746 mmHg 78%
16:00 +10°C° 0 mm 5 mps 746 mmHg 82%
17:00 +9°C° 0 mm 5 mps 746 mmHg 86%
18:00 +9°C° 0 mm 5 mps 746 mmHg 87%
19:00 +9°C° 0 mm 6 mps 746 mmHg 88%
20:00 +9°C° 0 mm 6 mps 746 mmHg 88%
21:00 +9°C° 0 mm 6 mps 746 mmHg 89%
22:00 +8°C° 0 mm 6 mps 745 mmHg 89%
23:00 +8°C° 0 mm 6 mps 745 mmHg 90%

26 October, Monday

Time Temperature Precipitation Wind Pressure Humidity
00:00 +7°C° 0 mm 2 mps 748 mmHg 93%
01:00 +7°C° 0 mm 2 mps 748 mmHg 93%
02:00 +6°C° 0 mm 2 mps 748 mmHg 94%
03:00 +5°C° 0 mm 3 mps 748 mmHg 94%
04:00 +5°C° 0 mm 3 mps 748 mmHg 95%
05:00 +5°C° 0 mm 3 mps 748 mmHg 95%
06:00 +5°C° 0 mm 3 mps 748 mmHg 95%
07:00 +5°C° 0 mm 3 mps 748 mmHg 95%
08:00 +5°C° 0 mm 4 mps 748 mmHg 95%
09:00 +7°C° 0 mm 4 mps 748 mmHg 89%
10:00 +8°C° 0 mm 4 mps 748 mmHg 84%
11:00 +9°C° 0 mm 5 mps 748 mmHg 79%
12:00 +10°C° 0 mm 5 mps 747 mmHg 77%
13:00 +12°C° 0 mm 5 mps 747 mmHg 75%
14:00 +12°C° 0 mm 5 mps 747 mmHg 74%
15:00 +12°C° 0 mm 5 mps 746 mmHg 78%
16:00 +10°C° 0 mm 5 mps 746 mmHg 82%
17:00 +9°C° 0 mm 5 mps 746 mmHg 86%
18:00 +9°C° 0 mm 5 mps 746 mmHg 87%
19:00 +9°C° 0 mm 6 mps 746 mmHg 88%
20:00 +9°C° 0 mm 6 mps 746 mmHg 88%
21:00 +9°C° 0 mm 6 mps 746 mmHg 89%
22:00 +8°C° 0 mm 6 mps 745 mmHg 89%
23:00 +8°C° 0 mm 6 mps 745 mmHg 90%

27 October, Tuesday

Time Temperature Precipitation Wind Pressure Humidity
00:00 +8°C° 0 mm 6 mps 745 mmHg 89%
01:00 +9°C° 0 mm 6 mps 745 mmHg 88%
02:00 +9°C° 0 mm 6 mps 745 mmHg 88%
03:00 +9°C° 0.2 mm 6 mps 745 mmHg 89%
04:00 +9°C° 0.2 mm 6 mps 745 mmHg 90%
05:00 +9°C° 0.2 mm 6 mps 745 mmHg 91%
06:00 +9°C° 0 mm 6 mps 745 mmHg 91%
07:00 +9°C° 0 mm 5 mps 745 mmHg 90%
08:00 +9°C° 0 mm 5 mps 745 mmHg 90%
09:00 +10°C° 0 mm 5 mps 745 mmHg 87%
10:00 +10°C° 0 mm 5 mps 745 mmHg 84%
11:00 +11°C° 0 mm 6 mps 745 mmHg 81%
12:00 +12°C° 0 mm 5 mps 745 mmHg 80%
13:00 +13°C° 0 mm 5 mps 745 mmHg 79%
14:00 +13°C° 0 mm 5 mps 745 mmHg 78%
15:00 +12°C° 0 mm 5 mps 745 mmHg 79%
16:00 +12°C° 0 mm 4 mps 745 mmHg 81%
17:00 +12°C° 0 mm 4 mps 745 mmHg 83%
18:00 +11°C° 0 mm 4 mps 745 mmHg 86%
19:00 +10°C° 0 mm 4 mps 745 mmHg 90%
20:00 +8°C° 0 mm 4 mps 745 mmHg 93%
21:00 +9°C° 0 mm 3 mps 745 mmHg 94%
22:00 +9°C° 0 mm 3 mps 745 mmHg 95%
23:00 +9°C° 0 mm 3 mps 745 mmHg 96%

28 October, Wednesday

Time Temperature Precipitation Wind Pressure Humidity
00:00 +9°C° 0 mm 3 mps 745 mmHg 96%
01:00 +9°C° 0 mm 2 mps 746 mmHg 96%
02:00 +9°C° 0 mm 2 mps 746 mmHg 96%
03:00 +9°C° 0 mm 2 mps 745 mmHg 96%
04:00 +9°C° 0 mm 2 mps 745 mmHg 96%
05:00 +9°C° 0 mm 2 mps 745 mmHg 96%
06:00 +9°C° 0 mm 2 mps 745 mmHg 96%
07:00 +9°C° 0 mm 2 mps 746 mmHg 97%
08:00 +9°C° 0 mm 3 mps 746 mmHg 97%
09:00 +10°C° 0 mm 3 mps 746 mmHg 93%
10:00 +11°C° 0 mm 3 mps 746 mmHg 89%
11:00 +13°C° 0 mm 3 mps 746 mmHg 85%
12:00 +13°C° 0 mm 3 mps 746 mmHg 82%
13:00 +14°C° 0 mm 3 mps 745 mmHg 80%
14:00 +16°C° 0 mm 3 mps 745 mmHg 77%
15:00 +14°C° 0 mm 3 mps 745 mmHg 82%
16:00 +13°C° 0 mm 3 mps 745 mmHg 87%
17:00 +12°C° 0 mm 2 mps 745 mmHg 92%
18:00 +12°C° 0 mm 2 mps 745 mmHg 92%
19:00 +12°C° 0 mm 2 mps 745 mmHg 93%
20:00 +10°C° 0 mm 2 mps 745 mmHg 94%
21:00 +10°C° 0 mm 2 mps 745 mmHg 93%
22:00 +12°C° 0 mm 2 mps 746 mmHg 93%
23:00 +12°C° 0 mm 2 mps 746 mmHg 92%
Show more